Wind_Speed
20 18 17 16 16 17 17 17 17 16 16 15 14 14 14 15 17 20 21 22 24 26 28 30 31 33 35 36 37 38 39 40 41 41 42 42 41 39 38 37 37 37 37 38 39 40 41 42 43 44 46 48 50 52 54 55 57 59 61 63 65 66 65 64 63 60 58 57 57 56 56 56 55 55 55 54 54 53 54 55 56 55 55 56 57
22 20 19 18 18 18 19 18 18 17 16 16 15 15 16 18 20 21 22 24 26 27 29 31 32 34 36 38 39 39 40 41 41 42 42 41 40 39 38 38 38 38 39 39 40 41 42 43 44 46 48 49 51 53 55 57 59 60 63 64 63 63 61 60 59 57 55 55 56 55 56 56 56 56 57 57 56 55 54 55 56 57 57 57 57
24 23 21 21 20 20 20 19 18 18 17 17 17 17 18 20 22 23 24 26 28 29 31 32 34 36 37 39 40 40 41 41 41 41 41 41 40 39 38 38 39 39 39 40 41 42 43 44 45 47 49 50 52 54 56 58 60 61 62 61 59 58 57 57 56 55 55 54 55 56 56 56 57 57 57 57 57 57 55 55 55 56 58 58 59
25 25 25 23 21 20 20 20 20 19 19 19 19 19 20 22 23 25 27 29 30 31 32 34 35 37 38 40 40 41 41 41 41 41 41 40 40 39 39 39 39 39 39 40 41 42 43 44 46 48 50 52 53 55 57 58 59 59 58 56 55 55 54 55 55 55 55 55 55 56 57 57 57 58 58 57 57 57 56 55 55 55 56 57 59
26 27 26 23 21 21 21 21 21 21 22 22 21 22 22 23 25 27 29 31 32 33 34 35 36 38 39 40 40 41 41 41 41 41 40 40 40 39 39 39 39 39 40 40 41 42 44 45 47 49 51 53 54 55 57 57 56 55 54 53 52 52 52 53 54 55 56 56 56 56 57 57 57 58 58 58 57 57 57 57 57 56 57 57 58
26 27 26 25 24 24 23 23 23 24 24 24 24 24 25 26 27 29 31 33 34 35 35 36 37 38 39 40 40 41 41 41 41 40 40 40 39 39 38 38 39 39 40 41 42 43 45 47 49 50 52 53 54 54 54 53 52 51 50 49 49 50 51 53 54 56 57 57 57 56 56 57 57 58 59 59 58 57 56 55 53 52 53 54 56
26 26 27 28 27 26 26 26 26 26 26 26 26 26 28 29 30 32 34 35 36 36 36 36 37 38 39 39 40 41 41 41 40 40 40 39 39 38 38 38 39 39 40 41 42 44 46 48 50 51 51 52 53 52 51 49 49 48 47 47 48 50 52 53 54 55 55 55 55 56 56 58 59 59 57 53 48 46 47 46 44 41 42 45 48
27 26 28 29 28 27 28 28 27 26 26 27 28 29 30 32 33 35 36 37 37 37 36 37 37 38 39 39 40 41 41 41 40 40 40 39 38 38 38 38 38 39 40 42 44 46 47 49 49 50 50 50 50 49 48 47 45 45 45 47 49 51 52 53 54 54 55 55 55 57 58 58 56 51 45 40 36 35 38 41 40 38 37 38 40
28 28 29 30 30 30 30 29 28 27 27 28 30 32 33 34 36 37 38 38 37 37 36 37 37 38 38 39 39 40 41 40 40 40 39 38 38 38 38 38 39 40 42 43 45 47 48 48 48 48 48 48 47 46 45 44 43 44 46 48 49 50 51 53 54 55 55 56 57 59 58 52 45 39 34 34 35 35 37 39 39 39 38 37 38
30 29 30 31 31 31 30 30 29 29 29 30 32 34 35 36 37 38 37 37 36 36 36 37 37 37 37 38 39 40 40 40 40 40 39 38 39 39 39 39 40 41 43 45 46 47 47 47 47 46 46 45 44 43 42 42 43 45 47 48 50 51 52 54 55 56 57 57 59 60 53 42 35 34 34 35 37 37 37 38 39 40 41 41 39
31 31 31 31 32 32 32 31 32 31 32 33 34 35 36 37 37 37 36 36 36 37 37 37 36 36 37 37 38 39 39 40 41 40 39 39 40 39 39 40 42 43 44 45 45 45 46 46 45 44 43 41 40 40 40 41 43 45 47 49 51 53 54 55 57 57 58 59 61 59 48 36 34 35 36 37 38 38 39 41 43 43 44 45 44
31 31 31 31 32 33 32 33 34 34 34 35 36 37 37 38 37 37 36 36 37 38 37 36 35 35 36 37 37 38 39 40 41 41 40 40 40 40 40 41 43 44 44 44 44 44 44 44 43 42 40 38 37 37 39 41 43 45 47 50 52 54 56 58 58 59 59 61 62 57 45 36 36 37 38 39 39 40 43 45 46 45 43 43 44
32 33 32 32 33 33 33 34 35 35 36 37 38 38 38 38 38 37 37 38 38 38 37 35 34 35 36 36 37 38 39 40 42 41 41 41 41 41 41 42 43 43 42 42 42 43 43 42 40 38 36 35 35 36 38 40 42 45 47 50 52 54 56 58 59 60 60 62 62 56 46 39 38 39 41 42 42 43 45 46 46 45 43 41 41
33 34 33 33 34 34 35 36 36 37 38 38 39 39 39 39 39 39 39 39 39 38 36 34 34 35 36 36 37 38 39 41 42 42 42 41 41 41 42 43 42 41 40 41 41 42 41 39 37 35 34 33 33 35 37 39 42 45 47 50 52 54 55 57 58 59 59 61 61 55 47 41 40 41 43 45 46 46 47 48 47 44 41 40 39
33 34 34 35 35 36 37 38 38 39 40 40 40 40 41 41 41 40 40 39 38 36 35 34 34 35 36 37 37 39 40 41 43 42 41 41 41 41 42 41 39 38 39 40 40 40 38 36 34 33 31 31 33 34 36 39 41 44 47 49 51 53 55 56 58 58 58 59 60 55 47 41 41 42 44 46 47 49 50 50 46 42 39 38 36
34 35 36 37 38 38 39 39 39 40 41 41 42 42 42 41 41 40 39 38 37 35 34 34 35 36 36 37 38 39 41 42 43 42 40 40 41 40 39 38 36 37 38 38 38 37 35 33 32 30 29 30 32 34 36 39 41 43 46 48 50 52 54 56 57 58 58 59 59 56 48 42 42 44 46 48 50 52 52 46 41 40 38 35 35
36 37 38 38 39 40 40 40 40 41 42 42 42 41 41 41 40 39 38 37 36 35 34 34 35 36 37 38 39 40 42 43 42 39 39 40 40 38 36 34 34 36 36 37 36 34 32 31 30 28 28 30 32 33 36 38 40 43 46 48 50 51 53 55 56 57 58 58 59 58 51 45 43 44 46 48 52 56 53 43 37 37 38 37 37
37 38 38 39 40 40 41 41 41 42 42 41 41 40 40 39 39 38 37 36 35 35 35 35 36 36 37 38 38 40 42 42 39 38 39 39 37 35 33 32 33 35 35 35 33 31 30 30 28 26 28 30 31 33 35 37 40 43 45 48 50 51 52 54 55 56 57 57 58 58 54 48 43 43 46 48 52 58 55 44 38 40 40 41 42
38 38 39 40 40 41 41 42 42 41 41 40 40 39 39 39 39 38 37 36 35 35 35 35 35 36 37 37 38 41 42 38 36 38 38 36 33 31 31 32 33 33 33 32 30 29 29 28 26 26 28 29 31 33 35 37 40 42 45 47 49 51 53 54 55 56 57 57 57 57 55 50 44 42 45 47 51 57 55 45 42 43 40 42 45
38 38 39 40 40 40 41 41 40 40 39 39 39 38 38 38 38 37 37 36 36 34 34 35 35 36 36 36 39 41 39 36 36 37 36 32 29 29 30 31 32 32 31 30 29 29 28 26 24 26 28 29 30 32 34 37 39 42 44 47 49 51 54 55 56 57 58 58 58 58 57 53 46 42 43 46 49 55 53 45 43 44 42 43 46
38 38 39 39 39 40 40 40 40 40 39 39 38 38 38 37 37 37 36 35 34 33 33 35 35 35 36 37 38 38 36 35 36 35 31 28 28 29 30 31 31 31 30 28 28 28 27 24 24 26 27 29 30 32 34 37 39 42 44 46 49 51 53 55 56 56 58 58 58 58 58 55 48 43 43 46 49 53 52 45 43 44 43 42 43
38 38 38 39 40 40 40 40 40 40 39 39 38 38 37 37 36 35 33 32 32 33 34 35 35 35 35 36 36 36 35 35 34 31 27 26 27 28 29 29 30 29 28 27 27 26 25 24 24 26 27 29 30 32 34 36 38 41 44 46 48 50 52 54 55 56 57 57 58 58 58 57 51 45 44 47 49 51 51 46 43 45 45 44 45
38 39 39 39 40 40 40 39 39 38 38 38 38 37 37 36 35 34 33 33 33 34 34 35 34 34 34 34 35 35 35 33 30 26 25 25 26 27 28 28 28 27 26 26 26 25 23 24 25 26 28 29 30 32 34 36 38 41 43 45 47 49 51 53 54 55 56 56 58 58 58 59 55 48 45 47 48 50 51 48 45 45 46 46 47
38 39 39 39 39 39 38 38 38 37 37 37 37 36 36 36 35 35 35 35 34 34 34 34 32 32 32 33 34 34 32 29 26 24 24 24 25 26 26 27 26 25 24 25 24 23 23 24 25 27 28 30 31 32 34 36 38 40 42 44 46 48 49 51 52 54 55 55 57 58 58 59 58 53 48 47 49 51 51 49 47 45 45 46 47
38 38 38 38 38 38 38 37 37 37 37 37 36 36 35 35 34 34 34 33 33 34 33 31 31 31 32 32 33 31 29 25 22 22 23 23 24 25 25 25 24 23 24 23 22 22 23 24 25 27 28 30 31 33 34 35 37 39 41 43 45 46 48 49 51 53 54 55 56 57 58 59 59 57 52 48 48 50 49 47 44 41 41 43 45
37 38 38 38 38 38 38 38 38 38 38 37 36 35 35 34 33 32 32 32 32 32 31 30 30 31 31 31 31 28 24 22 21 21 22 22 23 24 24 23 22 23 23 22 21 22 23 24 25 27 28 29 31 32 33 35 36 38 40 42 44 45 47 48 49 51 53 54 55 56 57 58 57 58 55 50 48 49 49 47 43 39 38 40 44
38 38 39 39 39 38 39 39 39 39 38 37 36 35 34 33 32 32 32 32 31 30 30 30 31 30 30 30 28 24 22 20 20 21 21 21 22 23 22 21 22 22 21 20 21 21 22 24 25 26 28 29 30 31 33 34 36 38 39 41 42 44 46 47 49 51 52 53 54 55 57 57 56 56 56 52 49 48 49 48 44 40 38 40 44
39 39 39 39 38 38 39 39 39 39 38 37 36 35 34 33 33 32 32 31 31 31 31 31 31 30 30 29 25 22 20 19 19 19 20 21 21 21 20 20 21 21 20 20 20 21 22 23 25 26 27 28 30 31 33 34 36 37 39 40 42 43 45 46 48 50 50 51 53 54 55 56 55 55 56 55 51 48 48 48 45 41 38 38 41
39 39 38 38 38 39 39 39 39 39 38 38 37 36 35 34 34 33 32 31 31 32 33 32 31 30 29 26 22 20 19 18 18 18 19 20 20 19 19 20 20 20 19 19 20 21 21 23 24 26 27 28 29 31 32 34 36 37 38 40 41 42 44 45 46 48 48 50 51 52 53 54 55 54 54 55 53 49 47 47 45 41 36 35 37
38 38 38 38 39 39 40 39 39 39 38 37 37 37 36 36 35 34 33 33 33 34 33 31 31 30 27 22 19 18 18 17 17 17 18 19 18 18 18 19 19 18 18 18 19 20 21 23 24 25 27 28 29 30 31 33 34 36 38 39 40 41 42 44 45 46 47 48 49 51 52 53 54 54 53 54 54 51 47 45 45 43 37 32 33
38 38 38 39 40 40 39 39 39 38 37 37 37 36 36 36 35 34 34 34 34 33 32 31 31 27 23 19 18 17 16 16 16 17 17 17 17 17 18 19 18 17 17 18 19 20 21 22 24 25 26 28 29 30 31 32 33 35 37 38 39 41 42 42 44 45 46 47 48 49 50 51 52 54 53 52 52 51 48 44 42 43 41 36 31
38 39 39 40 40 40 39 39 38 37 36 36 36 36 36 36 35 34 34 34 33 32 31 31 29 24 19 18 17 16 15 15 15 16 17 17 16 17 18 18 17 17 17 18 19 20 21 22 24 25 27 28 29 30 31 32 33 34 36 37 38 40 41 41 43 44 45 46 46 47 48 49 50 52 53 52 51 50 49 46 42 40 41 40 34
39 39 39 39 39 39 39 38 38 37 36 36 36 36 35 35 35 35 34 33 32 31 30 29 25 21 18 17 17 15 15 14 15 16 16 16 16 17 18 17 17 17 17 18 19 20 21 22 24 25 27 28 29 30 31 31 32 33 35 37 38 39 40 41 42 43 44 45 45 46 46 47 48 49 51 51 51 50 49 47 44 40 38 39 37
39 39 39 39 39 38 38 37 38 38 37 37 37 36 35 35 35 34 32 31 31 30 29 27 23 19 18 17 16 15 14 14 15 15 16 16 17 17 17 17 16 17 17 19 20 21 22 23 24 26 27 28 29 30 31 31 32 32 34 36 37 38 39 40 41 42 43 44 44 44 45 45 46 47 48 50 50 50 48 47 45 42 38 36 36
39 39 39 38 38 38 38 38 38 38 38 38 37 36 35 34 32 31 30 30 30 29 27 24 20 18 18 18 16 15 14 14 15 15 15 16 17 17 16 16 16 17 18 19 20 21 22 24 25 26 27 28 29 30 30 31 31 32 33 35 36 37 38 39 40 41 42 42 43 43 43 43 44 45 46 48 49 49 49 48 46 44 40 36 34
39 38 38 38 38 38 38 38 37 37 36 36 37 38 36 32 29 29 30 30 30 29 26 22 19 18 19 18 16 15 15 15 15 15 16 16 16 16 16 16 17 18 18 20 21 22 23 24 25 26 27 28 29 30 31 31 32 32 33 34 35 36 37 38 39 40 41 41 42 42 42 42 42 42 43 45 46 47 48 48 47 45 42 39 35
37 37 37 37 37 37 37 36 34 33 31 31 34 36 33 29 28 29 30 30 30 29 26 21 19 19 19 18 17 16 16 15 15 16 16 16 16 16 16 17 17 18 19 20 21 23 24 25 26 27 28 29 30 31 31 31 32 32 33 33 35 36 37 37 38 39 40 40 41 41 41 41 41 41 41 42 43 44 45 46 46 45 43 40 36
35 35 36 36 36 35 34 33 31 30 29 29 31 31 29 28 29 31 32 31 31 28 24 20 19 20 20 19 18 17 16 16 16 16 16 16 16 16 16 17 18 19 20 21 22 24 25 26 27 28 29 29 30 31 32 32 33 33 33 34 34 35 36 37 38 38 39 39 40 40 40 40 40 39 39 40 40 41 42 43 44 44 43 41 39
33 33 34 35 35 34 32 31 29 27 26 28 29 28 28 30 31 31 32 31 30 27 23 20 20 22 22 21 19 18 18 17 17 17 17 16 17 17 17 18 19 20 21 22 23 24 26 27 28 29 29 30 31 32 32 33 33 34 34 34 35 35 36 37 37 38 38 38 38 39 39 39 39 38 38 38 38 39 39 40 41 42 42 42 42
33 33 34 34 34 34 33 31 29 26 26 28 28 27 29 30 31 31 31 30 29 26 23 21 22 24 24 22 20 19 19 19 19 18 17 17 18 18 19 19 20 21 22 23 24 25 27 28 29 30 30 31 32 33 33 34 34 35 35 35 35 36 36 37 37 38 38 38 37 37 37 37 37 37 37 37 37 37 37 38 39 40 40 41 41
32 33 33 33 33 33 33 31 28 27 28 29 28 27 29 30 30 31 31 30 28 26 24 23 25 26 25 23 22 21 20 20 20 19 18 19 19 19 19 20 20 22 23 24 25 26 28 29 30 30 31 32 33 33 34 34 35 35 35 35 36 36 37 37 37 37 37 37 36 36 35 35 35 35 35 35 35 35 36 36 36 36 37 37 37
31 33 34 33 32 30 28 26 25 26 28 29 29 29 30 30 31 32 31 29 28 26 25 25 26 27 26 24 23 22 22 22 21 20 20 20 21 21 21 21 22 23 24 25 26 27 29 30 31 31 32 33 34 34 34 35 36 36 36 36 36 36 37 37 37 37 37 36 35 35 34 34 34 34 34 34 33 34 34 34 34 34 34 34 34
30 29 28 27 25 24 24 24 25 27 28 30 30 30 31 32 33 33 31 28 27 27 26 26 28 27 26 25 24 23 23 22 22 21 22 22 21 21 22 23 23 24 25 26 28 29 30 31 32 33 34 34 35 35 36 36 36 37 37 37 37 36 37 37 37 37 36 35 34 34 33 33 33 33 33 33 33 32 32 32 33 32 32 31 31
26 24 22 21 22 23 24 25 25 26 27 29 29 29 30 33 34 32 29 28 28 27 27 28 29 28 27 26 25 24 24 23 23 23 23 22 22 23 23 24 25 26 27 28 29 30 31 32 33 34 35 35 36 37 37 37 38 38 38 38 37 37 37 37 37 37 36 35 34 33 32 32 32 33 33 33 32 32 31 31 31 31 31 30 29
26 26 25 25 25 26 26 27 26 26 26 27 28 28 30 33 32 30 28 28 29 28 28 29 29 29 27 26 25 25 25 24 24 23 23 23 24 25 25 26 27 27 28 30 30 31 33 34 34 35 36 37 38 38 39 39 39 40 40 39 39 38 37 37 37 36 36 34 33 33 32 32 32 32 33 33 33 32 31 30 29 29 29 29 28
29 29 29 28 27 27 27 28 28 27 28 28 28 29 31 32 30 28 28 28 29 28 28 29 29 28 27 26 26 26 25 25 24 24 24 25 26 27 27 28 28 29 30 31 32 33 34 35 36 36 37 38 39 40 41 41 42 42 42 41 40 39 38 38 37 36 35 34 33 33 33 33 33 33 33 33 33 32 31 30 28 28 28 28 28
30 31 31 29 28 28 28 28 28 28 29 29 29 30 32 32 29 27 27 28 28 28 28 29 29 29 28 27 27 26 25 25 25 25 26 27 28 29 29 30 30 31 32 32 33 35 35 36 37 37 38 39 40 41 42 43 43 44 43 42 41 40 39 38 37 36 34 33 33 34 34 34 33 33 33 33 33 32 31 30 29 28 27 26 27
30 31 31 30 29 29 29 29 29 30 30 30 30 31 32 31 28 26 26 27 27 28 28 29 29 29 29 28 27 27 26 26 27 27 28 29 30 31 31 32 32 33 33 34 35 36 37 37 38 39 39 40 41 42 42 43 44 44 44 42 41 40 39 38 37 35 34 33 33 34 34 34 33 33 32 32 31 31 30 29 28 28 27 26 26
29 29 30 30 29 29 30 30 30 30 30 31 31 31 31 28 25 24 25 26 27 27 27 28 29 29 29 29 28 28 28 28 29 29 30 31 32 33 33 34 34 35 35 36 37 38 38 39 39 40 41 41 42 42 43 44 44 44 43 42 41 40 40 39 37 36 35 34 34 33 34 34 33 32 31 30 30 30 29 29 28 27 27 27 26
28 29 30 31 31 30 29 29 29 29 29 28 28 28 28 27 25 24 24 25 26 26 27 27 29 30 30 30 30 30 30 30 31 32 32 33 34 35 35 36 37 37 38 38 39 39 39 40 40 41 42 43 43 44 44 45 45 44 43 41 40 40 39 39 38 37 36 35 34 33 33 33 32 31 30 29 29 29 29 28 28 27 27 27 26
30 31 30 29 28 27 26 26 28 28 28 26 25 26 27 27 25 24 25 26 26 27 27 28 29 30 30 31 31 31 32 32 33 34 35 35 36 37 38 38 39 39 40 40 40 40 41 41 42 43 43 44 44 45 46 46 46 44 42 40 40 39 39 39 38 38 37 36 34 33 32 32 32 31 30 29 29 29 29 29 28 28 27 27 27
Wind_Direction
236 240 242 244 243 241 244 248 252 257 261 267 272 275 278 282 285 289 293 298 302 304 305 306 307 309 310 311 311 311 310 310 311 312 312 312 312 311 309 309 308 308 308 308 309 309 309 309 309 309 308 308 308 309 310 311 311 311 311 311 311 310 309 308 308 307 305 304 302 301 299 297 295 293 291 288 286 284 283 281 279 276 273 270 267
238 241 242 243 242 242 245 250 255 261 266 272 275 277 280 284 288 292 296 300 302 303 304 305 306 307 309 310 310 310 310 311 312 312 312 312 311 310 310 309 308 308 309 309 310 311 311 311 311 310 310 311 311 312 312 313 313 313 313 313 313 312 311 310 309 307 306 304 303 302 301 299 297 295 292 290 287 284 282 280 278 276 273 271 268
243 243 243 243 244 246 251 256 261 266 271 274 276 277 281 285 289 293 297 300 301 302 304 304 305 306 307 309 309 310 311 312 313 313 312 312 311 311 310 309 309 310 310 311 312 313 313 313 313 313 313 313 314 314 315 315 316 316 315 315 314 314 313 311 310 309 308 307 305 304 303 301 299 297 295 292 290 287 284 281 279 276 273 270 268
247 247 245 245 248 252 256 261 266 270 274 274 274 276 280 284 288 292 295 297 299 301 302 303 303 304 306 308 309 310 311 313 313 312 312 312 312 312 311 311 311 312 313 314 315 315 315 315 315 315 315 315 316 316 317 318 317 317 317 316 316 315 314 313 312 311 310 310 309 308 307 305 303 301 299 296 294 292 289 286 283 280 276 272 268
248 250 248 247 250 253 257 264 268 271 273 272 270 273 277 282 286 290 293 294 297 299 300 301 301 303 305 307 308 309 311 313 313 312 313 313 314 314 314 314 313 314 315 316 317 317 317 317 317 316 316 317 318 319 319 319 319 319 318 317 316 316 316 315 315 315 315 314 313 312 310 308 306 304 302 300 297 295 292 289 286 283 279 275 271
249 251 252 251 252 254 258 265 269 271 271 269 269 273 278 282 286 289 291 293 296 298 298 298 299 302 304 306 307 309 311 313 312 312 314 315 316 316 316 316 316 316 317 318 318 318 318 318 318 317 318 319 320 320 320 320 320 320 319 318 319 319 319 320 320 319 318 317 315 313 311 309 307 305 303 300 298 295 292 289 287 286 282 278 274
251 252 254 255 257 259 261 265 268 269 269 271 274 278 281 285 287 289 291 293 294 295 295 296 299 302 304 305 307 309 311 313 312 313 315 316 317 317 317 317 317 318 318 319 320 320 319 319 318 318 319 320 321 322 322 322 321 321 320 321 323 324 324 323 322 320 319 319 317 316 314 312 310 307 304 302 300 299 297 294 293 291 288 284 279
254 254 255 258 260 261 263 266 267 267 270 274 277 279 282 285 288 289 291 292 292 293 293 295 298 301 302 304 306 308 311 312 313 315 317 318 318 318 318 318 318 319 319 320 321 320 319 319 318 320 321 322 323 323 323 322 322 322 324 326 327 327 326 324 323 323 323 322 321 320 319 317 313 311 308 306 306 307 305 303 301 297 293 289 285
256 255 256 259 261 263 266 269 269 268 270 275 277 279 283 285 287 289 290 290 289 290 292 295 298 300 301 303 306 308 311 312 314 317 319 320 320 319 318 318 318 319 320 320 321 320 319 318 319 322 324 324 325 324 324 323 324 327 329 330 330 329 328 327 327 328 327 326 325 325 324 322 319 316 315 314 314 313 310 307 304 300 296 292 288
256 257 258 261 263 265 268 272 272 271 272 274 277 281 284 285 287 288 287 287 287 288 291 294 297 298 300 303 306 309 310 312 315 318 319 320 321 320 319 318 318 319 320 320 319 318 318 319 321 324 325 326 326 326 325 327 329 332 333 333 332 332 332 332 332 332 331 330 330 330 329 328 324 321 320 320 320 319 316 313 309 304 299 294 288
258 259 260 263 266 268 271 274 274 275 275 277 279 282 284 285 285 285 285 285 286 288 291 294 296 297 299 302 306 308 310 311 314 317 318 319 320 319 319 319 320 320 320 319 318 317 318 320 323 325 326 327 327 327 328 332 334 336 336 336 337 336 336 336 336 335 334 334 335 334 333 331 327 323 322 324 325 326 323 319 313 308 301 295 291
260 262 264 266 269 272 275 276 276 277 278 279 281 282 282 283 283 284 284 285 286 288 291 293 295 296 299 302 305 307 308 310 313 316 317 318 319 320 320 320 321 320 319 317 316 317 319 322 325 326 327 327 327 329 333 336 337 338 340 341 341 341 340 339 339 338 338 338 338 337 334 332 328 326 326 329 331 329 325 320 314 309 304 296 291
260 263 266 268 271 273 275 276 276 278 278 279 280 280 281 282 283 284 284 284 286 289 291 292 294 296 298 302 304 305 307 308 311 314 316 317 319 320 320 320 320 318 317 316 316 318 321 324 326 327 327 327 329 333 336 338 340 342 343 344 344 344 343 342 341 341 341 341 341 339 336 332 330 331 333 334 334 329 325 322 318 313 308 301 296
260 263 265 268 269 271 272 273 274 276 276 277 278 279 280 281 282 283 284 284 286 288 290 291 292 295 298 300 302 304 305 307 310 313 314 316 318 319 319 319 318 316 315 315 317 320 323 326 327 327 326 328 332 336 339 340 342 345 346 347 347 346 345 344 344 343 343 343 343 341 337 334 333 335 338 337 335 332 329 328 324 319 315 312 308
259 262 264 265 267 268 269 271 272 273 274 275 276 278 280 281 282 283 283 284 285 287 288 290 292 295 297 299 302 303 304 306 309 311 313 315 317 318 318 317 316 315 315 316 319 323 325 326 327 326 326 330 335 338 340 342 345 347 348 349 349 348 347 346 346 345 345 345 346 344 340 336 336 337 339 339 339 338 335 333 331 328 324 322 319
260 261 263 264 266 267 268 270 271 272 274 275 277 278 279 280 281 282 282 283 285 286 288 290 292 295 297 299 301 302 304 306 308 309 311 314 316 316 315 314 314 314 315 318 322 324 326 327 326 324 327 333 337 340 343 346 348 350 351 351 351 350 349 349 348 347 347 348 349 348 344 339 336 337 338 340 342 343 340 338 336 334 331 329 326
259 261 262 264 265 266 268 270 271 272 274 275 277 278 278 279 280 281 282 283 285 287 288 290 292 294 296 299 301 302 304 306 307 309 311 314 314 314 313 313 313 314 317 321 323 324 327 326 323 325 330 334 338 342 345 348 350 351 352 352 352 351 351 351 350 350 349 350 351 351 349 343 337 336 338 341 345 346 344 342 340 335 332 332 331
259 260 261 263 265 267 269 270 272 273 274 275 276 277 278 279 281 282 283 284 285 287 288 290 292 294 296 299 300 302 304 306 307 310 312 312 311 311 311 311 312 316 319 322 323 325 326 323 322 326 332 335 339 343 346 348 350 351 352 353 353 353 352 352 352 352 352 352 353 353 352 346 340 337 339 344 348 349 348 346 343 337 333 335 337
259 260 262 263 265 267 269 270 271 273 274 275 276 277 279 281 282 283 283 284 285 287 288 290 292 294 296 298 301 303 305 306 308 310 310 309 308 309 310 311 314 318 321 323 325 325 323 320 322 329 332 335 340 343 345 347 349 350 352 353 354 354 353 354 354 354 354 354 354 356 355 350 344 340 343 348 351 351 351 351 349 346 342 343 346
259 261 263 264 266 268 269 270 271 272 273 274 276 278 280 281 282 283 284 284 284 285 287 290 291 293 296 299 302 305 306 307 308 308 307 306 307 309 310 313 317 320 321 323 325 322 319 319 325 331 333 336 339 341 343 345 347 348 350 352 353 354 355 356 356 355 356 356 356 357 357 354 349 344 347 352 353 353 354 355 355 354 350 349 352
261 262 263 265 266 267 268 269 270 271 272 274 275 277 279 280 281 283 283 281 282 285 288 290 291 294 298 301 304 306 307 307 306 305 304 305 307 309 311 315 318 320 322 323 322 319 318 322 329 332 333 335 337 340 342 344 345 347 349 351 352 354 355 357 357 357 357 358 357 358 359 358 354 350 353 356 355 354 356 357 358 358 354 350 354
262 263 263 264 265 267 267 269 270 271 273 274 275 277 278 279 282 282 280 279 283 288 289 289 292 296 299 302 304 305 305 305 303 302 303 305 308 310 314 317 319 320 322 321 318 318 321 327 330 332 332 333 336 338 341 343 345 346 348 350 352 354 355 357 358 358 358 359 359 359 360 0 359 356 357 359 358 358 360 360 358 359 359 353 353
261 262 264 265 266 267 268 270 272 273 275 276 277 278 279 280 280 280 279 282 286 288 288 290 294 297 299 301 302 302 302 301 300 300 303 306 309 313 316 317 319 320 320 317 316 320 325 328 330 331 332 333 335 338 340 342 344 346 348 350 352 354 355 357 358 358 359 360 360 0 1 2 2 1 0 1 2 1 3 4 0 360 2 359 356
262 263 264 265 267 268 270 272 273 275 276 277 278 279 279 279 279 279 280 284 285 286 289 292 295 297 299 300 300 299 299 297 297 300 303 307 311 314 315 317 318 318 316 314 317 322 326 328 329 330 331 332 334 337 340 342 345 346 348 350 352 354 355 356 357 358 359 0 1 2 3 4 4 4 3 3 4 5 7 8 5 2 3 1 360
263 264 265 266 267 269 271 272 274 275 276 277 278 278 279 280 280 281 282 284 285 287 290 293 295 297 298 297 297 297 296 295 296 300 304 308 312 313 315 316 317 315 312 313 319 324 327 328 329 329 331 333 335 337 340 343 345 347 349 351 353 354 354 355 357 358 360 1 2 3 5 6 6 6 5 4 5 7 10 11 9 6 4 2 3
262 263 265 266 268 270 272 273 275 276 276 277 278 279 280 282 282 283 284 285 287 289 291 292 294 296 296 295 294 293 292 293 297 301 305 309 311 312 313 315 313 310 310 314 320 324 326 328 329 331 333 335 337 339 341 344 346 348 350 352 353 353 353 354 356 358 360 1 2 4 6 8 8 7 6 6 6 8 12 14 13 11 8 7 8
263 264 266 268 270 271 273 274 275 275 276 278 279 281 282 283 283 283 285 287 288 289 290 291 293 293 293 292 290 289 289 292 297 301 305 308 309 310 312 312 310 308 310 315 320 323 326 329 331 333 335 337 339 341 342 345 348 349 350 352 352 353 353 354 355 357 359 1 3 4 6 8 10 9 8 8 7 8 13 17 18 15 12 13 16
265 266 267 269 270 271 272 272 273 275 276 278 280 281 282 283 283 283 285 287 288 288 289 290 292 292 291 288 285 284 287 292 296 301 304 306 307 309 311 309 306 306 311 316 319 323 327 330 333 335 337 339 342 344 345 347 348 349 350 351 352 353 354 354 355 356 358 0 2 4 5 7 11 11 10 10 10 9 12 18 22 20 16 17 20
265 266 267 267 268 269 269 271 272 274 276 278 280 281 282 282 283 284 285 286 286 287 288 290 291 290 286 282 279 281 286 290 294 299 302 304 306 307 306 304 303 307 312 316 320 324 329 332 334 336 338 341 343 345 347 348 348 348 349 350 351 352 353 354 355 355 357 359 1 4 5 6 10 13 13 12 12 12 12 16 23 26 21 18 20
264 264 265 266 267 268 269 271 273 275 277 279 280 281 282 282 283 284 284 283 284 285 287 289 289 284 278 274 275 278 282 287 292 297 300 302 303 302 301 301 303 308 314 318 322 327 331 333 335 337 338 341 343 344 346 347 347 347 348 349 350 352 353 354 355 355 356 358 360 3 5 6 8 12 15 15 14 14 14 14 20 26 26 21 19
263 264 265 266 267 269 271 273 275 277 279 280 281 281 281 281 282 282 281 281 282 284 286 286 282 275 268 267 271 275 279 285 291 294 297 298 298 298 298 299 303 309 315 320 323 329 332 334 335 336 337 340 342 343 345 346 346 347 347 348 349 350 352 354 355 355 356 357 359 1 4 5 7 9 14 17 16 15 16 16 18 23 27 27 24
264 266 267 268 269 271 273 274 276 277 278 279 280 279 280 280 281 279 278 278 280 282 282 279 272 263 260 264 269 271 276 283 288 292 293 293 294 295 296 299 305 311 317 321 325 330 332 333 334 335 337 339 340 341 343 344 345 346 346 347 348 349 351 353 354 355 356 357 358 359 2 5 6 7 11 15 18 17 17 18 19 22 26 29 31
267 268 269 270 272 273 274 274 275 276 276 277 277 278 279 280 279 278 277 277 277 278 275 269 260 255 257 261 264 268 274 281 285 288 289 289 290 292 295 300 307 313 318 322 325 329 331 332 333 334 335 337 339 340 341 342 345 346 346 346 347 348 350 352 353 355 356 356 357 358 360 3 6 7 8 12 16 19 18 18 20 23 25 28 31
269 270 271 272 272 273 273 274 274 275 275 276 276 277 277 277 276 275 275 274 274 272 266 258 251 251 255 258 260 265 272 278 282 283 284 285 288 291 295 301 307 313 317 321 324 327 329 331 332 333 334 335 337 338 339 340 343 346 346 345 346 347 349 351 352 354 355 355 355 357 358 0 3 6 7 9 12 17 20 19 20 22 25 27 29
269 269 270 271 271 272 272 272 273 275 276 277 277 275 274 273 271 269 268 269 269 264 255 247 245 249 252 253 257 263 269 273 276 277 279 282 285 290 295 300 306 311 316 319 321 324 326 329 331 332 333 334 336 337 338 339 342 345 346 345 345 346 348 350 351 352 354 354 355 355 357 359 0 3 6 7 9 13 18 20 21 21 23 26 29
268 268 269 269 270 270 271 273 274 274 275 277 278 275 270 267 263 261 263 265 262 253 244 241 242 246 248 251 256 261 264 267 268 271 275 279 283 289 294 298 304 309 313 316 319 321 324 327 330 331 332 334 336 336 336 338 341 344 345 345 345 345 347 349 350 351 352 353 354 354 356 357 358 0 4 6 8 9 13 17 20 21 22 24 26
268 268 268 269 269 269 271 273 273 272 273 279 281 275 265 258 255 256 260 260 253 244 240 240 242 244 247 250 254 257 259 261 264 267 272 277 281 286 291 296 301 306 309 313 316 319 323 326 329 331 332 334 335 335 335 337 340 343 345 345 345 345 346 347 349 350 350 351 352 353 354 355 357 358 1 4 6 8 10 13 17 20 22 23 24
267 268 269 269 270 271 270 269 270 270 274 282 284 273 258 251 252 254 256 254 246 239 239 241 241 244 248 249 250 252 254 256 260 263 267 271 276 281 287 293 299 303 307 311 314 317 321 325 328 330 332 333 334 334 334 336 340 342 344 345 345 344 344 346 347 348 349 350 350 351 353 354 355 357 358 0 3 6 7 10 13 16 19 21 23
267 268 269 270 272 274 273 271 270 270 273 281 281 268 254 251 252 254 254 249 240 237 240 241 241 245 248 247 246 247 249 252 256 259 262 266 272 278 284 291 296 301 304 307 311 315 320 323 326 329 331 332 333 333 334 335 338 341 343 343 343 342 342 344 345 346 346 348 349 350 351 352 353 355 356 357 359 2 5 7 9 12 15 18 19
268 268 268 269 270 271 271 271 270 267 270 276 274 262 254 254 255 255 252 245 238 239 242 241 242 247 248 245 243 243 245 248 252 255 259 264 269 274 281 287 293 297 300 304 308 313 317 321 324 326 329 331 331 332 333 334 337 339 340 341 341 341 341 342 343 343 344 345 347 348 349 350 351 352 354 355 356 358 1 4 6 9 11 14 17
267 268 268 268 268 268 266 264 261 260 264 267 263 254 251 254 255 253 248 241 238 241 242 241 244 248 247 244 242 242 243 246 249 252 257 261 265 271 278 284 289 293 296 301 306 310 314 317 321 324 327 329 330 330 332 333 335 336 338 338 339 339 339 340 340 341 342 343 344 345 347 348 349 350 351 353 354 355 357 359 2 5 7 10 13
267 268 269 268 265 262 256 251 247 247 249 250 249 246 246 251 253 250 244 240 240 243 242 242 246 248 247 245 243 242 243 245 248 252 256 259 264 271 278 283 287 291 295 300 304 307 311 315 318 321 324 326 327 329 330 331 332 334 335 336 337 337 337 337 337 338 339 340 341 343 344 346 347 348 349 350 352 353 353 355 357 360 3 5 8
267 268 265 261 255 248 241 237 236 236 237 239 241 243 247 252 253 247 241 239 242 244 243 243 246 247 247 246 244 242 243 245 247 250 254 259 265 272 278 283 287 291 295 299 302 306 309 312 315 318 321 323 325 327 328 329 330 332 333 334 335 335 335 334 334 335 336 337 339 340 342 342 343 344 345 347 349 350 351 351 352 354 356 359 2
264 261 256 253 251 247 243 240 238 238 239 242 243 246 250 253 249 242 238 240 244 245 244 244 246 247 247 245 243 242 242 244 247 251 256 262 269 274 278 282 286 290 293 297 300 304 307 310 312 315 318 320 323 325 327 327 328 330 331 332 332 332 332 332 332 332 333 335 336 338 339 340 340 341 341 342 344 346 347 348 348 349 350 353 356
259 258 258 260 259 255 251 249 247 246 247 247 247 249 250 248 242 237 238 243 246 247 246 246 247 248 246 244 242 242 242 245 249 254 259 265 270 273 277 281 284 288 291 294 298 302 305 307 310 312 315 318 320 323 324 326 327 328 329 329 330 329 329 330 330 330 331 332 334 335 336 337 337 337 337 338 339 341 342 344 344 345 345 347 349
258 259 262 264 262 259 256 255 254 254 253 251 250 250 247 241 235 236 242 246 248 248 248 248 248 246 244 242 241 242 244 248 252 256 260 265 269 272 276 279 282 286 289 293 297 300 302 305 308 310 313 315 318 320 322 324 325 326 326 327 327 327 327 327 328 328 329 330 332 332 333 333 333 333 333 334 335 336 337 339 340 342 342 342 343
257 259 262 263 262 260 258 257 256 255 254 252 249 245 239 233 233 238 244 247 249 250 249 248 247 245 242 241 241 243 246 250 253 257 261 264 268 272 275 278 281 284 288 292 295 298 300 302 305 308 311 313 315 317 320 321 322 323 324 324 324 324 324 324 324 325 327 328 329 329 329 329 329 329 330 330 331 333 334 335 337 338 339 339 339
256 258 260 262 262 261 260 260 258 255 253 250 247 241 234 231 234 241 244 247 250 250 249 249 248 246 244 243 243 245 248 251 254 258 261 265 268 271 274 277 281 284 288 291 293 295 298 301 303 306 308 310 312 315 317 319 319 320 321 321 320 320 320 321 321 322 324 326 327 327 325 324 325 326 327 328 329 330 331 332 334 334 335 335 335
256 257 258 260 261 260 261 261 260 258 255 252 246 240 235 233 236 241 244 248 250 250 250 250 250 248 246 245 246 247 250 253 256 259 262 265 269 272 275 278 281 284 287 289 291 293 296 299 301 303 305 308 310 312 315 316 317 317 317 317 317 317 317 318 319 320 322 324 325 323 321 321 322 324 325 326 327 328 329 330 330 331 332 331 331
257 258 258 259 258 258 257 257 256 256 256 253 246 240 239 239 240 243 246 249 249 249 250 250 250 249 248 248 248 250 252 255 257 260 263 266 269 273 276 279 281 283 285 288 290 292 295 297 299 302 303 305 308 310 312 313 314 314 314 313 313 314 314 316 317 318 319 321 322 320 318 318 320 322 324 325 325 326 326 327 327 328 329 328 328
257 257 257 256 253 252 251 251 250 252 253 251 244 240 241 242 243 247 250 250 249 248 249 250 250 251 250 250 251 253 255 257 259 262 264 267 270 273 275 278 280 282 284 286 289 291 294 296 298 300 302 304 307 309 310 311 311 311 311 310 310 311 312 313 314 316 317 318 318 317 316 317 319 321 322 323 323 324 324 324 325 325 326 326 325
Height
5791 5792 5792 5793 5793 5793 5794 5794 5795 5795 5795 5794 5794 5794 5794 5794 5793 5793 5792 5792 5791 5790 5789 5788 5786 5785 5783 5781 5779 5777 5775 5773 5770 5767 5765 5762 5759 5757 5754 5752 5750 5748 5746 5744 5741 5739 5736 5734 5731 5728 5726 5723 5719 5716 5712 5708 5703 5699 5694 5689 5684 5680 5676 5672 5668 5665 5660 5653 5650 5648 5643 5640 5637 5633 5629 5628 5626 5623 5620 5617 5614 5613 5613 5612 5611
5789 5790 5790 5790 5791 5791 5792 5792 5793 5793 5792 5792 5792 5792 5792 5791 5791 5790 5789 5789 5788 5787 5786 5785 5783 5782 5780 5778 5776 5774 5771 5769 5766 5764 5761 5759 5756 5754 5751 5749 5746 5744 5742 5740 5737 5734 5732 5729 5727 5724 5721 5717 5713 5709 5705 5700 5696 5691 5687 5682 5677 5671 5667 5664 5660 5657 5654 5648 5643 5640 5636 5631 5628 5624 5620 5617 5615 5613 5612 5608 5605 5603 5601 5601 5600
5787 5788 5788 5788 5788 5789 5790 5790 5790 5790 5789 5789 5789 5789 5789 5789 5788 5787 5787 5786 5785 5784 5783 5782 5780 5779 5777 5775 5773 5770 5768 5765 5763 5761 5758 5756 5753 5750 5748 5745 5743 5740 5738 5736 5733 5730 5728 5725 5722 5719 5715 5711 5707 5703 5699 5694 5689 5685 5680 5675 5670 5665 5660 5656 5653 5649 5646 5642 5636 5632 5628 5623 5618 5614 5610 5606 5603 5601 5600 5598 5595 5593 5590 5589 5589
5785 5785 5785 5785 5787 5788 5788 5788 5788 5787 5787 5787 5787 5787 5787 5786 5785 5784 5784 5783 5782 5781 5780 5779 5777 5775 5774 5771 5769 5767 5765 5762 5760 5757 5755 5752 5750 5747 5744 5741 5739 5736 5734 5732 5729 5727 5724 5721 5717 5713 5709 5705 5701 5697 5692 5688 5683 5679 5674 5669 5664 5660 5655 5650 5646 5642 5638 5634 5629 5623 5618 5614 5609 5604 5599 5597 5593 5590 5587 5586 5584 5582 5579 5577 5577
5782 5782 5782 5784 5785 5785 5785 5785 5785 5785 5785 5785 5785 5784 5784 5783 5782 5781 5781 5780 5779 5778 5776 5775 5774 5772 5770 5768 5766 5764 5761 5759 5757 5754 5752 5749 5746 5743 5741 5738 5735 5733 5730 5728 5725 5722 5719 5716 5712 5708 5704 5700 5695 5691 5686 5682 5678 5673 5669 5664 5660 5655 5650 5645 5640 5635 5630 5626 5621 5616 5610 5605 5600 5595 5589 5586 5584 5580 5577 5574 5572 5569 5567 5566 5564
5779 5780 5780 5781 5782 5782 5782 5782 5782 5782 5782 5782 5782 5781 5780 5780 5779 5778 5777 5776 5775 5774 5773 5772 5770 5768 5767 5765 5762 5760 5758 5756 5754 5751 5749 5746 5743 5740 5737 5735 5732 5729 5727 5724 5721 5718 5715 5711 5707 5703 5699 5695 5690 5686 5681 5676 5672 5668 5664 5660 5656 5651 5645 5640 5634 5629 5623 5618 5613 5609 5603 5597 5591 5587 5581 5576 5572 5569 5566 5564 5561 5558 5555 5553 5552
5777 5778 5778 5778 5779 5779 5779 5779 5779 5779 5779 5779 5778 5778 5777 5776 5775 5775 5774 5773 5772 5771 5769 5768 5767 5765 5763 5761 5759 5757 5755 5753 5750 5748 5745 5742 5739 5736 5734 5731 5729 5726 5723 5720 5717 5714 5710 5706 5702 5698 5694 5690 5685 5681 5677 5673 5668 5664 5661 5656 5651 5646 5641 5635 5629 5624 5618 5613 5607 5601 5596 5589 5582 5577 5571 5566 5562 5559 5555 5553 5552 5550 5547 5543 5541
5775 5775 5775 5775 5775 5776 5776 5776 5777 5776 5776 5775 5774 5774 5773 5773 5772 5771 5770 5769 5768 5767 5766 5764 5763 5761 5759 5757 5756 5754 5752 5749 5747 5744 5742 5739 5736 5733 5730 5728 5725 5722 5719 5716 5713 5710 5706 5702 5698 5694 5689 5685 5681 5677 5673 5669 5665 5661 5657 5652 5647 5642 5636 5630 5625 5619 5613 5607 5600 5594 5588 5581 5573 5567 5562 5559 5556 5554 5549 5545 5543 5542 5540 5537 5533
5772 5772 5772 5772 5772 5772 5772 5773 5772 5772 5772 5772 5771 5770 5770 5769 5768 5767 5767 5766 5765 5763 5762 5761 5759 5758 5756 5754 5752 5750 5748 5746 5743 5741 5738 5735 5733 5730 5727 5724 5722 5719 5716 5713 5709 5705 5702 5698 5694 5689 5685 5681 5677 5673 5669 5665 5662 5657 5653 5648 5643 5637 5632 5626 5619 5613 5607 5600 5594 5587 5580 5572 5565 5561 5558 5554 5551 5549 5545 5540 5536 5533 5531 5529 5527
5768 5769 5769 5769 5769 5768 5769 5769 5768 5769 5769 5768 5767 5767 5766 5765 5764 5764 5763 5762 5761 5760 5758 5757 5756 5754 5752 5750 5748 5746 5744 5742 5740 5737 5734 5732 5729 5726 5723 5720 5718 5715 5712 5708 5705 5702 5698 5694 5690 5686 5681 5677 5673 5669 5665 5662 5657 5653 5648 5643 5638 5633 5627 5621 5614 5607 5601 5594 5587 5579 5572 5566 5561 5556 5554 5550 5546 5543 5539 5534 5530 5526 5522 5520 5519
5765 5765 5765 5765 5765 5765 5765 5765 5765 5765 5765 5764 5764 5763 5762 5761 5761 5760 5759 5758 5757 5756 5755 5753 5752 5750 5748 5747 5745 5743 5741 5738 5736 5734 5731 5728 5725 5722 5720 5717 5714 5711 5708 5705 5701 5698 5694 5691 5686 5682 5678 5674 5670 5666 5663 5658 5654 5649 5644 5638 5633 5626 5621 5615 5609 5602 5595 5588 5580 5572 5566 5562 5557 5553 5549 5546 5542 5537 5533 5528 5523 5519 5515 5511 5509
5761 5761 5762 5762 5761 5761 5761 5761 5761 5760 5761 5760 5759 5759 5758 5757 5757 5756 5755 5754 5753 5752 5751 5749 5748 5746 5745 5743 5741 5739 5737 5734 5732 5730 5727 5724 5721 5718 5716 5713 5710 5707 5704 5701 5698 5694 5691 5687 5683 5679 5676 5672 5668 5665 5660 5656 5651 5646 5641 5635 5629 5622 5615 5608 5602 5596 5589 5582 5575 5566 5561 5558 5553 5549 5545 5541 5537 5532 5528 5523 5516 5511 5507 5502 5499
5758 5757 5758 5758 5758 5758 5758 5757 5757 5757 5757 5756 5755 5755 5754 5754 5753 5753 5752 5750 5749 5748 5747 5745 5744 5742 5741 5739 5737 5735 5733 5731 5728 5726 5723 5720 5717 5714 5712 5709 5706 5703 5700 5697 5694 5691 5687 5683 5680 5677 5673 5670 5667 5663 5658 5654 5649 5644 5638 5632 5626 5619 5612 5605 5598 5591 5584 5577 5570 5562 5557 5553 5549 5545 5540 5536 5532 5527 5522 5517 5510 5503 5499 5494 5490
5754 5754 5755 5755 5755 5755 5754 5754 5753 5753 5753 5752 5751 5751 5750 5750 5749 5749 5747 5746 5745 5744 5742 5741 5740 5738 5737 5735 5733 5731 5729 5727 5724 5722 5719 5716 5713 5710 5707 5705 5702 5699 5697 5694 5691 5687 5684 5681 5677 5674 5671 5668 5665 5661 5657 5652 5647 5642 5636 5630 5624 5617 5611 5604 5597 5589 5582 5574 5567 5559 5553 5549 5545 5541 5536 5531 5526 5521 5515 5510 5503 5496 5491 5486 5482
5751 5751 5751 5751 5751 5751 5750 5750 5750 5749 5749 5748 5747 5747 5746 5746 5745 5744 5743 5742 5741 5739 5738 5737 5736 5734 5733 5731 5729 5727 5725 5723 5720 5718 5715 5712 5709 5706 5703 5701 5698 5696 5694 5691 5687 5684 5681 5678 5675 5672 5669 5666 5663 5659 5655 5651 5646 5640 5635 5629 5623 5616 5609 5602 5595 5588 5581 5573 5565 5557 5551 5546 5541 5536 5532 5527 5522 5516 5508 5501 5494 5489 5484 5480 5476
5747 5747 5747 5747 5747 5747 5746 5746 5746 5745 5744 5744 5743 5743 5742 5741 5741 5740 5739 5738 5736 5735 5734 5732 5731 5730 5728 5727 5725 5723 5721 5718 5716 5714 5711 5708 5705 5702 5699 5697 5695 5693 5690 5687 5684 5681 5678 5675 5673 5670 5667 5664 5661 5657 5653 5649 5644 5639 5634 5628 5622 5615 5608 5601 5594 5586 5579 5571 5563 5555 5549 5544 5538 5533 5528 5522 5517 5512 5504 5496 5489 5483 5479 5475 5471
5743 5743 5743 5743 5743 5742 5742 5742 5741 5741 5740 5739 5739 5738 5737 5737 5736 5735 5734 5733 5732 5731 5729 5728 5727 5726 5724 5723 5721 5719 5717 5714 5712 5709 5707 5704 5701 5699 5696 5694 5692 5690 5687 5684 5681 5679 5676 5673 5671 5668 5665 5662 5659 5655 5651 5647 5642 5638 5632 5627 5621 5615 5608 5601 5594 5586 5578 5570 5563 5555 5548 5542 5537 5531 5526 5519 5513 5506 5499 5492 5486 5480 5475 5470 5465
5739 5739 5739 5739 5738 5738 5737 5737 5736 5736 5736 5735 5734 5733 5733 5732 5732 5730 5729 5728 5727 5726 5725 5724 5723 5721 5720 5718 5717 5714 5712 5710 5707 5705 5702 5700 5698 5695 5693 5691 5689 5686 5684 5681 5679 5676 5674 5671 5669 5666 5663 5660 5657 5653 5649 5645 5641 5636 5631 5626 5620 5614 5608 5602 5595 5587 5579 5571 5563 5555 5548 5542 5536 5530 5524 5517 5510 5501 5493 5487 5481 5476 5470 5464 5459
5734 5734 5734 5734 5734 5734 5733 5732 5732 5731 5731 5731 5730 5729 5728 5728 5727 5726 5725 5724 5723 5722 5721 5719 5718 5717 5716 5714 5712 5710 5708 5705 5703 5701 5698 5696 5694 5692 5690 5688 5686 5683 5681 5678 5676 5674 5672 5669 5667 5664 5661 5658 5654 5651 5647 5643 5639 5635 5630 5625 5619 5613 5607 5600 5593 5586 5579 5571 5563 5556 5548 5541 5535 5529 5523 5516 5508 5499 5490 5483 5478 5472 5466 5460 5453
5730 5730 5730 5729 5729 5729 5728 5727 5727 5727 5726 5726 5725 5724 5723 5723 5722 5721 5720 5719 5718 5717 5716 5715 5714 5713 5711 5710 5707 5705 5703 5701 5699 5697 5695 5693 5691 5689 5687 5685 5683 5680 5678 5676 5673 5672 5670 5667 5665 5662 5659 5656 5653 5649 5646 5642 5637 5633 5628 5623 5617 5612 5605 5598 5590 5584 5576 5569 5562 5554 5547 5540 5534 5528 5522 5514 5507 5499 5490 5482 5476 5469 5463 5457 5449
5725 5725 5725 5725 5724 5724 5723 5723 5722 5722 5721 5721 5721 5720 5719 5718 5717 5717 5716 5714 5713 5712 5712 5711 5710 5708 5707 5705 5703 5701 5699 5697 5695 5693 5691 5689 5688 5686 5684 5682 5680 5678 5675 5673 5671 5670 5667 5665 5662 5660 5657 5654 5651 5647 5644 5640 5636 5631 5626 5621 5615 5609 5603 5596 5590 5583 5576 5568 5561 5554 5547 5540 5533 5527 5520 5512 5505 5498 5490 5481 5475 5469 5462 5455 5448
5720 5720 5720 5720 5720 5719 5719 5718 5718 5717 5717 5716 5716 5715 5714 5713 5713 5712 5711 5710 5709 5708 5707 5707 5706 5704 5702 5700 5698 5697 5695 5693 5691 5689 5687 5686 5685 5683 5681 5679 5677 5675 5673 5671 5670 5668 5665 5663 5660 5658 5655 5653 5649 5646 5642 5638 5634 5629 5624 5619 5613 5607 5601 5595 5589 5583 5576 5569 5561 5554 5547 5540 5532 5525 5518 5511 5505 5497 5489 5481 5474 5468 5461 5454 5447
5716 5716 5715 5715 5715 5715 5714 5714 5713 5713 5712 5712 5711 5711 5710 5709 5708 5708 5707 5706 5705 5704 5703 5702 5701 5700 5698 5696 5694 5693 5691 5689 5687 5686 5684 5683 5681 5680 5678 5676 5674 5672 5671 5669 5668 5665 5663 5661 5658 5656 5654 5651 5648 5644 5641 5637 5632 5628 5623 5618 5612 5607 5601 5595 5589 5583 5576 5569 5562 5555 5547 5539 5531 5524 5517 5511 5505 5497 5488 5480 5473 5467 5462 5455 5447
5712 5711 5711 5711 5710 5710 5710 5709 5709 5708 5708 5707 5707 5706 5705 5704 5704 5703 5702 5701 5701 5700 5699 5698 5696 5695 5693 5692 5690 5689 5687 5685 5684 5682 5681 5680 5679 5677 5676 5674 5672 5670 5669 5667 5666 5664 5661 5659 5657 5654 5652 5649 5646 5643 5639 5635 5631 5626 5622 5617 5611 5606 5601 5595 5589 5583 5576 5570 5563 5555 5547 5539 5531 5524 5517 5511 5505 5497 5489 5480 5473 5467 5462 5456 5449
5707 5707 5707 5706 5706 5706 5705 5705 5704 5704 5703 5702 5702 5701 5700 5700 5699 5698 5698 5697 5696 5695 5694 5693 5692 5690 5689 5687 5686 5684 5683 5682 5681 5680 5679 5678 5676 5675 5673 5672 5670 5669 5667 5666 5664 5662 5659 5657 5655 5653 5650 5647 5644 5640 5637 5633 5629 5625 5621 5616 5611 5606 5601 5595 5590 5583 5577 5570 5563 5556 5548 5540 5532 5525 5518 5512 5506 5500 5492 5484 5477 5470 5465 5459 5452
5703 5702 5702 5702 5701 5701 5701 5700 5700 5699 5698 5698 5697 5696 5696 5696 5695 5694 5693 5692 5692 5691 5690 5689 5688 5686 5685 5684 5682 5681 5680 5679 5678 5677 5676 5675 5674 5673 5671 5669 5668 5667 5666 5664 5662 5660 5658 5656 5654 5651 5649 5646 5642 5639 5635 5632 5628 5623 5619 5615 5610 5605 5600 5595 5590 5583 5577 5570 5563 5556 5550 5542 5535 5528 5521 5514 5508 5501 5494 5487 5479 5474 5469 5463 5456
5698 5698 5697 5697 5697 5697 5696 5695 5695 5694 5694 5693 5693 5692 5692 5691 5691 5689 5689 5688 5687 5686 5685 5685 5684 5682 5681 5680 5678 5677 5676 5676 5675 5674 5673 5673 5672 5670 5669 5668 5667 5665 5664 5662 5660 5658 5656 5654 5652 5649 5647 5644 5641 5637 5634 5630 5626 5622 5618 5614 5610 5605 5600 5594 5589 5583 5577 5570 5564 5558 5551 5545 5539 5531 5524 5516 5510 5503 5497 5489 5481 5476 5472 5467 5462
5694 5693 5693 5693 5692 5692 5691 5691 5690 5690 5689 5688 5688 5688 5687 5687 5686 5685 5684 5684 5683 5682 5681 5680 5679 5678 5677 5676 5675 5674 5673 5673 5672 5672 5671 5670 5669 5668 5667 5666 5665 5664 5662 5660 5658 5656 5654 5652 5650 5648 5645 5642 5639 5636 5632 5628 5625 5621 5617 5613 5609 5604 5599 5594 5588 5583 5577 5571 5565 5559 5553 5548 5542 5535 5527 5519 5512 5506 5500 5493 5485 5480 5476 5472 5468
5689 5689 5688 5688 5688 5687 5687 5686 5685 5685 5684 5684 5683 5683 5683 5682 5681 5681 5680 5679 5678 5677 5677 5676 5675 5674 5673 5672 5672 5671 5671 5670 5670 5669 5669 5668 5667 5666 5665 5664 5663 5662 5660 5658 5657 5655 5653 5651 5648 5646 5643 5641 5638 5635 5632 5628 5624 5621 5617 5613 5609 5604 5600 5595 5589 5584 5578 5573 5567 5561 5555 5549 5544 5538 5531 5523 5516 5509 5503 5497 5490 5485 5481 5477 5473
5684 5684 5684 5683 5683 5682 5682 5681 5680 5680 5680 5679 5678 5678 5677 5677 5676 5676 5675 5674 5673 5673 5672 5672 5671 5670 5669 5669 5669 5668 5668 5667 5667 5667 5667 5666 5665 5664 5663 5662 5661 5659 5658 5656 5654 5653 5651 5649 5647 5644 5642 5639 5637 5634 5631 5628 5624 5620 5616 5612 5608 5604 5599 5595 5590 5585 5579 5573 5568 5562 5556 5550 5545 5540 5534 5527 5520 5513 5507 5501 5495 5490 5485 5482 5479
5679 5679 5679 5678 5678 5677 5677 5676 5676 5675 5675 5674 5674 5673 5672 5672 5671 5671 5670 5669 5668 5668 5668 5668 5667 5666 5665 5665 5665 5665 5665 5665 5665 5665 5664 5663 5663 5662 5661 5660 5659 5657 5656 5654 5652 5651 5649 5647 5645 5643 5641 5638 5635 5633 5630 5627 5623 5619 5615 5611 5607 5603 5599 5594 5590 5585 5580 5574 5569 5563 5558 5552 5546 5541 5536 5531 5525 5518 5512 5507 5501 5495 5489 5486 5483
5674 5674 5674 5673 5673 5672 5671 5671 5671 5671 5670 5670 5669 5668 5668 5667 5666 5666 5665 5664 5664 5664 5664 5663 5663 5662 5662 5662 5662 5662 5662 5662 5662 5662 5662 5661 5661 5660 5659 5658 5657 5655 5654 5652 5650 5649 5647 5645 5643 5641 5639 5636 5634 5631 5628 5625 5622 5618 5614 5611 5606 5602 5598 5594 5590 5585 5580 5575 5570 5565 5559 5554 5548 5543 5538 5534 5529 5523 5517 5511 5506 5500 5495 5490 5487
5669 5669 5668 5668 5667 5667 5666 5666 5666 5665 5665 5665 5664 5664 5663 5663 5662 5661 5660 5660 5660 5660 5659 5659 5659 5659 5659 5659 5659 5659 5659 5660 5660 5660 5659 5659 5658 5658 5657 5656 5654 5653 5651 5650 5648 5647 5645 5644 5642 5640 5637 5635 5632 5629 5626 5623 5620 5617 5613 5609 5606 5602 5597 5593 5589 5585 5580 5575 5571 5566 5561 5556 5551 5545 5540 5536 5532 5527 5521 5516 5510 5505 5500 5495 5491
5664 5663 5663 5662 5662 5661 5661 5661 5661 5660 5660 5660 5659 5659 5659 5658 5657 5657 5656 5656 5656 5656 5655 5655 5655 5655 5656 5656 5656 5657 5657 5657 5657 5657 5657 5657 5656 5655 5655 5653 5652 5651 5650 5648 5647 5645 5643 5642 5640 5638 5635 5633 5630 5627 5625 5622 5619 5616 5612 5608 5604 5601 5597 5592 5588 5584 5580 5576 5572 5567 5562 5557 5553 5548 5543 5538 5533 5530 5525 5520 5514 5509 5504 5500 5496
5658 5658 5657 5657 5657 5657 5656 5656 5656 5655 5655 5654 5654 5654 5653 5653 5653 5653 5652 5652 5652 5652 5651 5651 5652 5652 5653 5653 5653 5654 5654 5654 5655 5655 5655 5654 5654 5653 5652 5651 5650 5649 5648 5646 5645 5643 5642 5640 5638 5636 5634 5631 5628 5626 5623 5620 5617 5614 5611 5607 5604 5600 5596 5592 5588 5584 5580 5576 5572 5568 5564 5559 5554 5550 5545 5540 5535 5531 5527 5523 5518 5513 5508 5504 5501
5653 5652 5652 5652 5651 5651 5651 5651 5651 5651 5650 5650 5649 5648 5648 5648 5648 5648 5648 5648 5648 5648 5648 5648 5648 5649 5650 5650 5651 5651 5652 5652 5652 5652 5652 5652 5651 5651 5650 5649 5648 5647 5646 5644 5643 5641 5640 5638 5636 5634 5632 5629 5626 5624 5621 5618 5615 5613 5610 5606 5603 5599 5596 5592 5588 5584 5580 5576 5573 5568 5564 5560 5556 5552 5547 5542 5537 5533 5529 5526 5522 5518 5513 5509 5505
5647 5647 5647 5646 5646 5646 5646 5646 5646 5646 5646 5645 5644 5643 5643 5644 5644 5644 5644 5644 5644 5644 5645 5645 5646 5646 5647 5647 5648 5648 5649 5649 5650 5650 5650 5649 5649 5648 5647 5646 5646 5645 5643 5642 5641 5639 5637 5636 5634 5632 5629 5627 5624 5622 5619 5616 5614 5611 5608 5605 5602 5598 5594 5591 5587 5584 5580 5576 5573 5569 5565 5561 5558 5554 5549 5545 5541 5536 5532 5528 5525 5522 5518 5514 5511
5642 5642 5641 5641 5641 5641 5642 5641 5641 5641 5641 5641 5640 5639 5639 5640 5641 5640 5640 5641 5641 5641 5641 5642 5642 5643 5643 5644 5645 5646 5646 5646 5647 5647 5647 5647 5646 5645 5645 5644 5643 5642 5641 5640 5638 5637 5635 5633 5631 5630 5627 5625 5623 5620 5617 5614 5612 5609 5606 5603 5600 5597 5593 5590 5586 5583 5580 5576 5573 5569 5565 5562 5558 5555 5551 5547 5543 5539 5535 5531 5527 5524 5522 5518 5515
5637 5637 5637 5636 5636 5636 5636 5636 5636 5636 5636 5636 5636 5636 5636 5637 5637 5637 5637 5637 5637 5638 5638 5639 5639 5640 5640 5641 5642 5643 5643 5643 5644 5644 5644 5644 5643 5643 5642 5641 5641 5640 5639 5637 5636 5634 5633 5631 5629 5627 5625 5623 5621 5618 5615 5613 5610 5607 5605 5602 5599 5596 5592 5589 5586 5582 5579 5576 5573 5569 5566 5562 5559 5555 5552 5549 5545 5541 5537 5533 5529 5526 5523 5520 5517
5633 5632 5632 5632 5631 5630 5630 5631 5631 5631 5632 5633 5633 5633 5633 5634 5634 5634 5633 5634 5634 5635 5635 5636 5636 5637 5637 5638 5639 5639 5640 5640 5641 5641 5641 5641 5640 5640 5639 5639 5638 5637 5636 5635 5633 5632 5630 5629 5627 5625 5623 5621 5618 5616 5614 5611 5608 5606 5603 5600 5597 5594 5591 5588 5584 5581 5578 5575 5572 5569 5566 5563 5559 5556 5553 5550 5546 5543 5539 5536 5532 5528 5525 5522 5519
5627 5627 5627 5627 5626 5626 5626 5626 5626 5627 5628 5629 5629 5629 5630 5630 5630 5630 5630 5630 5631 5632 5632 5632 5633 5633 5634 5635 5635 5636 5637 5637 5638 5638 5638 5638 5637 5637 5637 5636 5636 5635 5633 5632 5630 5629 5627 5626 5624 5622 5620 5618 5616 5614 5611 5609 5606 5604 5601 5599 5596 5593 5590 5586 5583 5580 5578 5575 5572 5569 5566 5563 5559 5557 5554 5551 5548 5544 5541 5538 5534 5531 5527 5525 5522
5623 5622 5621 5621 5621 5621 5621 5621 5622 5623 5624 5625 5625 5626 5626 5626 5626 5626 5627 5627 5628 5628 5629 5629 5630 5630 5631 5632 5632 5633 5634 5634 5634 5635 5635 5635 5635 5634 5634 5633 5633 5632 5630 5629 5627 5626 5625 5623 5622 5620 5618 5616 5614 5611 5609 5606 5604 5602 5599 5597 5594 5591 5588 5585 5582 5579 5576 5574 5571 5568 5565 5562 5559 5557 5554 5551 5548 5545 5542 5539 5536 5533 5530 5527 5524
5618 5617 5617 5616 5616 5617 5617 5617 5618 5619 5620 5621 5621 5622 5622 5622 5622 5623 5623 5624 5625 5625 5626 5626 5626 5627 5628 5629 5630 5630 5630 5631 5631 5631 5632 5632 5632 5631 5631 5630 5629 5629 5627 5626 5624 5623 5622 5620 5619 5617 5615 5613 5611 5609 5606 5604 5601 5599 5597 5595 5592 5590 5587 5584 5581 5578 5575 5573 5570 5567 5564 5562 5559 5556 5554 5551 5549 5546 5543 5540 5537 5535 5532 5530 5527
5614 5614 5613 5613 5614 5614 5614 5614 5615 5616 5616 5617 5617 5618 5618 5618 5619 5619 5620 5621 5622 5622 5622 5623 5623 5624 5625 5626 5627 5627 5627 5627 5628 5628 5628 5628 5628 5628 5627 5627 5626 5625 5624 5623 5622 5620 5619 5617 5616 5614 5612 5610 5608 5605 5603 5601 5599 5596 5594 5592 5590 5587 5585 5582 5579 5576 5574 5571 5569 5566 5563 5561 5558 5556 5553 5551 5548 5546 5544 5541 5538 5536 5533 5531 5528
5610 5610 5610 5611 5611 5611 5611 5611 5611 5612 5612 5613 5613 5614 5614 5615 5615 5616 5617 5618 5618 5619 5619 5619 5620 5621 5622 5623 5624 5624 5624 5624 5625 5625 5625 5625 5625 5624 5624 5624 5623 5622 5621 5620 5618 5617 5616 5614 5612 5611 5609 5607 5604 5602 5600 5598 5595 5593 5591 5589 5587 5585 5582 5580 5577 5575 5572 5569 5567 5564 5562 5560 5557 5555 5552 5550 5548 5546 5544 5541 5539 5537 5534 5532 5530
5606 5606 5606 5607 5607 5608 5608 5608 5608 5608 5608 5609 5609 5610 5610 5611 5612 5613 5614 5615 5615 5615 5616 5616 5617 5618 5619 5620 5620 5621 5621 5621 5621 5621 5621 5621 5621 5621 5621 5620 5620 5619 5618 5617 5615 5614 5612 5611 5609 5607 5605 5603 5601 5599 5597 5594 5592 5590 5588 5586 5584 5582 5580 5577 5575 5573 5570 5568 5565 5563 5560 5558 5556 5553 5551 5549 5547 5544 5543 5541 5539 5537 5534 5532 5530
5602 5602 5602 5603 5603 5604 5604 5604 5604 5605 5605 5605 5605 5606 5606 5607 5609 5610 5611 5612 5612 5612 5613 5613 5614 5615 5616 5616 5617 5617 5617 5617 5617 5618 5618 5618 5618 5617 5617 5617 5616 5615 5614 5613 5612 5610 5609 5608 5606 5604 5602 5600 5598 5596 5594 5592 5589 5587 5585 5583 5581 5579 5577 5575 5572 5570 5568 5566 5563 5561 5558 5556 5554 5552 5550 5547 5545 5543 5541 5539 5538 5536 5534 5532 5530
5597 5597 5598 5598 5599 5599 5600 5600 5600 5601 5601 5601 5601 5602 5602 5604 5605 5606 5607 5608 5609 5609 5610 5610 5611 5612 5612 5613 5613 5614 5614 5614 5614 5614 5614 5614 5614 5614 5613 5613 5612 5612 5611 5609 5608 5607 5605 5604 5602 5601 5599 5597 5595 5593 5591 5589 5587 5584 5582 5580 5578 5576 5574 5572 5570 5568 5566 5564 5561 5559 5556 5554 5552 5550 5548 5546 5544 5542 5540 5538 5536 5534 5533 5531 5529
5593 5593 5593 5594 5594 5595 5596 5596 5597 5597 5597 5597 5598 5598 5599 5601 5602 5603 5604 5605 5605 5606 5606 5607 5608 5608 5609 5609 5610 5610 5610 5611 5611 5611 5611 5610 5610 5610 5610 5609 5608 5607 5607 5606 5604 5603 5602 5600 5599 5597 5595 5594 5592 5590 5588 5586 5584 5581 5579 5577 5575 5572 5570 5569 5567 5565 5563 5561 5559 5556 5553 5551 5549 5548 5546 5544 5542 5540 5538 5536 5534 5533 5531 5530 5528
5588 5588 5589 5589 5590 5590 5591 5592 5593 5593 5594 5594 5595 5596 5597 5598 5598 5599 5600 5601 5602 5602 5603 5603 5604 5605 5605 5606 5606 5606 5607 5607 5607 5607 5607 5607 5606 5606 5605 5605 5604 5603 5602 5601 5600 5599 5598 5596 5595 5593 5592 5590 5588 5587 5585 5583 5580 5578 5576 5574 5572 5569 5567 5565 5563 5562 5560 5558 5556 5554 5551 5548 5547 5545 5543 5542 5540 5538 5536 5534 5532 5531 5529 5528 5526
5583 5584 5584 5585 5585 5586 5587 5588 5589 5590 5590 5591 5592 5593 5593 5594 5595 5596 5597 5597 5598 5598 5599 5600 5600 5601 5602 5602 5603 5603 5603 5603 5603 5603 5603 5603 5602 5602 5601 5600 5600 5599 5598 5597 5596 5595 5593 5592 5591 5589 5588 5586 5585 5583 5581 5579 5577 5575 5573 5570 5568 5566 5564 5562 5560 5558 5556 5555 5553 5551 5548 5546 5544 5542 5541 5539 5537 5535 5534 5532 5530 5529 5527 5526 5524